Time,TemperatureF,DewpointF,PressureIn,WindDirection,WindDirectionDegrees,WindSpeedMPH,WindSpeedGustMPH,Humidity,HourlyPrecipIn,Conditions,Clouds,dailyrainin,SoftwareType,DateUTC
2013-03-05 00:06:00,20.3,6.0,30.26,SSE,167,0.0,-999.0,55,-99.99,,,0.00,weatherlink.com 1.10,2013-03-05 07:06:00,
2013-03-05 00:22:00,19.2,6.0,30.25,SSE,165,2.0,-999.0,56,-99.99,,,0.00,weatherlink.com 1.10,2013-03-05 07:22:00,
2013-03-05 00:36:00,18.8,5.0,30.25,South,176,1.0,-999.0,55,-99.99,,,0.00,weatherlink.com 1.10,2013-03-05 07:36:00,
2013-03-05 00:52:00,18.3,4.0,30.25,South,174,0.0,-999.0,54,-99.99,,,0.00,weatherlink.com 1.10,2013-03-05 07:52:00,
2013-03-05 01:07:00,18.0,3.0,30.29,SE,132,2.0,-999.0,53,-99.99,,,0.00,weatherlink.com 1.10,2013-03-05 08:07:00,
2013-03-05 01:37:00,16.5,2.0,30.28,South,175,4.0,-999.0,53,-99.99,,,0.00,weatherlink.com 1.10,2013-03-05 08:37:00,
2013-03-05 01:54:00,16.2,1.0,30.29,SE,139,0.0,-999.0,52,-99.99,,,0.00,weatherlink.com 1.10,2013-03-05 08:54:00,
2013-03-05 02:09:00,15.6,1.0,30.29,SW,229,2.0,-999.0,53,-99.99,,,0.00,weatherlink.com 1.10,2013-03-05 09:09:00,
2013-03-05 02:24:00,14.9,1.0,30.31,South,169,0.0,-999.0,54,-99.99,,,0.00,weatherlink.com 1.10,2013-03-05 09:24:00,
2013-03-05 02:39:00,13.6,0.0,30.31,SSE,163,0.0,-999.0,56,-99.99,,,0.00,weatherlink.com 1.10,2013-03-05 09:39:00,
2013-03-05 02:54:00,12.6,-2.0,30.33,SSE,163,0.0,-999.0,53,-99.99,,,0.00,weatherlink.com 1.10,2013-03-05 09:54:00,
2013-03-05 03:09:00,12.3,0.0,30.34,SSE,163,0.0,-999.0,58,-99.99,,,0.00,weatherlink.com 1.10,2013-03-05 10:09:00,
2013-03-05 03:24:00,12.1,-1.0,30.34,SSE,163,0.0,-999.0,56,-99.99,,,0.00,weatherlink.com 1.10,2013-03-05 10:24:00,
2013-03-05 03:39:00,11.2,-2.0,30.35,SSE,163,0.0,-999.0,56,-99.99,,,0.00,weatherlink.com 1.10,2013-03-05 10:39:00,
2013-03-05 03:55:00,10.2,-2.0,30.37,SSE,163,0.0,-999.0,58,-99.99,,,0.00,weatherlink.com 1.10,2013-03-05 10:55:00,
2013-03-05 04:10:00,9.7,-1.0,30.37,SSE,163,0.0,-999.0,62,-99.99,,,0.00,weatherlink.com 1.10,2013-03-05 11:10:00,
2013-03-05 04:26:00,9.0,-2.0,30.40,SSE,163,0.0,-999.0,61,-99.99,,,0.00,weatherlink.com 1.10,2013-03-05 11:26:00,
2013-03-05 04:41:00,8.3,-3.0,30.43,SSE,163,0.0,-999.0,61,-99.99,,,0.00,weatherlink.com 1.10,2013-03-05 11:41:00,
2013-03-05 04:56:00,8.1,-3.0,30.43,SSE,163,0.0,-999.0,60,-99.99,,,0.00,weatherlink.com 1.10,2013-03-05 11:56:00,
2013-03-05 05:11:00,8.6,-3.0,30.43,SSE,163,0.0,-999.0,60,-99.99,,,0.00,weatherlink.com 1.10,2013-03-05 12:11:00,
2013-03-05 05:26:00,7.7,-3.0,30.47,SSE,163,0.0,-999.0,62,-99.99,,,0.00,weatherlink.com 1.10,2013-03-05 12:26:00,
2013-03-05 05:42:00,7.0,-4.0,30.47,SSE,163,0.0,-999.0,62,-99.99,,,0.00,weatherlink.com 1.10,2013-03-05 12:42:00,
2013-03-05 05:57:00,7.4,-4.0,30.51,SSE,163,0.0,-999.0,61,-99.99,,,0.00,weatherlink.com 1.10,2013-03-05 12:57:00,
2013-03-05 06:12:00,6.3,-4.0,30.49,SSE,163,0.0,-999.0,63,-99.99,,,0.00,weatherlink.com 1.10,2013-03-05 13:12:00,
2013-03-05 06:28:00,6.1,-4.0,30.56,SSE,163,0.0,-999.0,64,-99.99,,,0.00,weatherlink.com 1.10,2013-03-05 13:28:00,
2013-03-05 06:44:00,6.0,-4.0,30.57,SSE,163,0.0,-999.0,63,-99.99,,,0.00,weatherlink.com 1.10,2013-03-05 13:44:00,
2013-03-05 06:59:00,6.1,-4.0,30.57,SSE,163,0.0,-999.0,64,-99.99,,,0.00,weatherlink.com 1.10,2013-03-05 13:59:00,
2013-03-05 07:14:00,6.5,-4.0,30.62,SSE,163,0.0,-999.0,62,-99.99,,,0.00,weatherlink.com 1.10,2013-03-05 14:14:00,
2013-03-05 07:29:00,6.5,-4.0,30.63,SSE,163,0.0,-999.0,62,-99.99,,,0.00,weatherlink.com 1.10,2013-03-05 14:29:00,
2013-03-05 07:44:00,7.2,-4.0,30.64,SSE,163,0.0,-999.0,61,-99.99,,,0.00,weatherlink.com 1.10,2013-03-05 14:44:00,
2013-03-05 07:59:00,8.6,-4.0,30.62,SSE,163,0.0,-999.0,58,-99.99,,,0.00,weatherlink.com 1.10,2013-03-05 14:59:00,
2013-03-05 08:14:00,10.2,-3.0,30.64,SSE,163,0.0,-999.0,56,-99.99,,,0.00,weatherlink.com 1.10,2013-03-05 15:14:00,
2013-03-05 08:30:00,12.3,-2.0,30.62,SSE,163,0.0,-999.0,53,-99.99,,,0.00,weatherlink.com 1.10,2013-03-05 15:30:00,
2013-03-05 08:45:00,14.1,-2.0,30.60,SSE,163,0.0,-999.0,49,-99.99,,,0.00,weatherlink.com 1.10,2013-03-05 15:45:00,
2013-03-05 09:00:00,16.1,-1.0,30.58,SSE,163,0.0,-999.0,48,-99.99,,,0.00,weatherlink.com 1.10,2013-03-05 16:00:00,
2013-03-05 09:16:00,18.3,-1.0,30.57,SSE,163,0.0,-999.0,43,-99.99,,,0.00,weatherlink.com 1.10,2013-03-05 16:16:00,
2013-03-05 09:31:00,20.2,-1.0,30.54,SSE,163,0.0,-999.0,40,-99.99,,,0.00,weatherlink.com 1.10,2013-03-05 16:31:00,
2013-03-05 09:46:00,21.1,0.0,30.51,SSE,163,0.0,-999.0,40,-99.99,,,0.00,weatherlink.com 1.10,2013-03-05 16:46:00,
2013-03-05 10:01:00,23.3,2.0,30.49,SSE,163,0.0,-999.0,39,-99.99,,,0.00,weatherlink.com 1.10,2013-03-05 17:01:00,
2013-03-05 10:17:00,25.6,2.0,30.48,SSE,163,0.0,-999.0,36,-99.99,,,0.00,weatherlink.com 1.10,2013-03-05 17:17:00,
2013-03-05 10:32:00,27.9,1.0,30.43,SSE,163,0.0,-999.0,32,-99.99,,,0.00,weatherlink.com 1.10,2013-03-05 17:32:00,
2013-03-05 10:47:00,29.5,0.0,30.44,NE,43,0.0,-999.0,28,-99.99,,,0.00,weatherlink.com 1.10,2013-03-05 17:47:00,
2013-03-05 11:02:00,31.2,1.0,30.41,NE,46,0.0,-999.0,28,-99.99,,,0.00,weatherlink.com 1.10,2013-03-05 18:02:00,
2013-03-05 11:20:00,32.4,3.0,30.43,NE,42,0.0,-999.0,28,-99.99,,,0.00,weatherlink.com 1.10,2013-03-05 18:20:00,
2013-03-05 11:34:00,33.5,4.0,30.41,NE,42,0.0,-999.0,29,-99.99,,,0.00,weatherlink.com 1.10,2013-03-05 18:34:00,
2013-03-05 11:49:00,34.4,5.0,30.41,NE,42,0.0,-999.0,29,-99.99,,,0.00,weatherlink.com 1.10,2013-03-05 18:49:00,
2013-03-05 12:04:00,35.6,5.0,30.39,NE,42,0.0,-999.0,28,-99.99,,,0.00,weatherlink.com 1.10,2013-03-05 19:04:00,
2013-03-05 12:19:00,36.2,6.0,30.39,NE,34,0.0,-999.0,28,-99.99,,,0.00,weatherlink.com 1.10,2013-03-05 19:19:00,
2013-03-05 12:34:00,37.2,6.0,30.39,NE,48,0.0,-999.0,27,-99.99,,,0.00,weatherlink.com 1.10,2013-03-05 19:34:00,
2013-03-05 12:49:00,37.6,6.0,30.36,NE,48,0.0,-999.0,27,-99.99,,,0.00,weatherlink.com 1.10,2013-03-05 19:49:00,
2013-03-05 13:04:00,38.3,7.0,30.35,NE,36,0.0,-999.0,27,-99.99,,,0.00,weatherlink.com 1.10,2013-03-05 20:04:00,
2013-03-05 13:20:00,38.2,7.0,30.37,ENE,58,0.0,-999.0,27,-99.99,,,0.00,weatherlink.com 1.10,2013-03-05 20:20:00,
2013-03-05 13:35:00,38.3,11.0,30.37,NNW,348,0.0,-999.0,32,-99.99,,,0.00,weatherlink.com 1.10,2013-03-05 20:35:00,
2013-03-05 13:50:00,38.6,10.0,30.36,North,9,0.0,-999.0,30,-99.99,,,0.00,weatherlink.com 1.10,2013-03-05 20:50:00,
2013-03-05 14:05:00,38.6,10.0,30.36,NNW,340,0.0,-999.0,30,-99.99,,,0.00,weatherlink.com 1.10,2013-03-05 21:05:00,
2013-03-05 14:37:00,38.6,10.0,30.39,NNW,348,0.0,-999.0,30,-99.99,,,0.00,weatherlink.com 1.10,2013-03-05 21:37:00,
2013-03-05 14:51:00,38.8,11.0,30.39,NNW,334,0.0,-999.0,32,-99.99,,,0.00,weatherlink.com 1.10,2013-03-05 21:51:00,
2013-03-05 15:07:00,39.3,10.0,30.39,NNW,337,0.0,-999.0,30,-99.99,,,0.00,weatherlink.com 1.10,2013-03-05 22:07:00,
2013-03-05 15:22:00,39.3,9.0,30.40,NNE,24,0.0,-999.0,29,-99.99,,,0.00,weatherlink.com 1.10,2013-03-05 22:22:00,
2013-03-05 15:38:00,39.8,11.0,30.38,NE,52,0.0,-999.0,30,-99.99,,,0.00,weatherlink.com 1.10,2013-03-05 22:38:00,
2013-03-05 15:53:00,39.1,9.0,30.38,ENE,67,0.0,-999.0,29,-99.99,,,0.00,weatherlink.com 1.10,2013-03-05 22:53:00,
2013-03-05 16:09:00,39.2,11.0,30.40,NE,40,0.0,-999.0,31,-99.99,,,0.00,weatherlink.com 1.10,2013-03-05 23:09:00,
2013-03-05 16:24:00,40.6,10.0,30.40,NE,41,3.0,-999.0,29,-99.99,,,0.00,weatherlink.com 1.10,2013-03-05 23:24:00,
2013-03-05 16:39:00,40.8,10.0,30.40,NE,37,0.0,-999.0,28,-99.99,,,0.00,weatherlink.com 1.10,2013-03-05 23:39:00,
2013-03-05 16:54:00,40.8,12.0,30.40,NE,37,0.0,-999.0,31,-99.99,,,0.00,weatherlink.com 1.10,2013-03-05 23:54:00,
2013-03-05 17:10:00,40.6,10.0,30.39,NNE,14,0.0,-999.0,28,-99.99,,,0.00,weatherlink.com 1.10,2013-03-06 00:10:00,
2013-03-05 17:24:00,40.6,10.0,30.39,NNE,14,0.0,-999.0,29,-99.99,,,0.00,weatherlink.com 1.10,2013-03-06 00:24:00,
2013-03-05 17:39:00,40.1,9.0,30.40,NNE,14,0.0,-999.0,28,-99.99,,,0.00,weatherlink.com 1.10,2013-03-06 00:39:00,
2013-03-05 17:55:00,37.2,8.0,30.42,NNE,14,0.0,-999.0,29,-99.99,,,0.00,weatherlink.com 1.10,2013-03-06 00:55:00,
2013-03-05 18:10:00,34.1,8.0,30.45,NNE,14,0.0,-999.0,33,-99.99,,,0.00,weatherlink.com 1.10,2013-03-06 01:10:00,
2013-03-05 18:25:00,31.3,13.0,30.51,NNE,14,0.0,-999.0,46,-99.99,,,0.00,weatherlink.com 1.10,2013-03-06 01:25:00,
2013-03-05 18:40:00,29.8,8.0,30.54,NNE,14,0.0,-999.0,40,-99.99,,,0.00,weatherlink.com 1.10,2013-03-06 01:40:00,
2013-03-05 18:56:00,27.9,10.0,30.54,NNE,14,0.0,-999.0,47,-99.99,,,0.00,weatherlink.com 1.10,2013-03-06 01:56:00,
2013-03-05 19:11:00,27.3,9.0,30.56,NNE,14,0.0,-999.0,47,-99.99,,,0.00,weatherlink.com 1.10,2013-03-06 02:11:00,
2013-03-05 19:26:00,26.4,9.0,30.54,NNE,14,0.0,-999.0,49,-99.99,,,0.00,weatherlink.com 1.10,2013-03-06 02:26:00,
2013-03-05 19:57:00,26.3,8.0,30.57,NE,40,0.0,-999.0,47,-99.99,,,0.00,weatherlink.com 1.10,2013-03-06 02:57:00,
2013-03-05 20:44:00,28.7,6.0,30.46,SW,234,0.0,-999.0,38,-99.99,,,0.00,weatherlink.com 1.10,2013-03-06 03:44:00,
2013-03-05 20:59:00,26.9,6.0,30.49,SW,234,0.0,-999.0,42,-99.99,,,0.00,weatherlink.com 1.10,2013-03-06 03:59:00,
2013-03-05 21:14:00,25.8,6.0,30.49,SW,234,0.0,-999.0,43,-99.99,,,0.00,weatherlink.com 1.10,2013-03-06 04:14:00,
2013-03-05 21:29:00,24.8,7.0,30.43,SW,234,0.0,-999.0,46,-99.99,,,0.00,weatherlink.com 1.10,2013-03-06 04:29:00,
2013-03-05 21:44:00,24.4,6.0,30.45,SW,234,0.0,-999.0,46,-99.99,,,0.00,weatherlink.com 1.10,2013-03-06 04:44:00,
2013-03-05 21:59:00,25.3,5.0,30.43,SW,234,0.0,-999.0,42,-99.99,,,0.00,weatherlink.com 1.10,2013-03-06 04:59:00,
2013-03-05 22:14:00,24.5,7.0,30.35,SW,234,0.0,-999.0,47,-99.99,,,0.00,weatherlink.com 1.10,2013-03-06 05:14:00,
2013-03-05 22:30:00,23.5,4.0,30.37,SW,234,0.0,-999.0,43,-99.99,,,0.00,weatherlink.com 1.10,2013-03-06 05:30:00,
2013-03-05 22:45:00,22.7,7.0,30.37,SW,234,0.0,-999.0,51,-99.99,,,0.00,weatherlink.com 1.10,2013-03-06 05:45:00,
2013-03-05 23:00:00,21.4,5.0,30.39,SW,234,0.0,-999.0,50,-99.99,,,0.00,weatherlink.com 1.10,2013-03-06 06:00:00,
2013-03-05 23:15:00,20.8,5.0,30.35,SW,234,0.0,-999.0,50,-99.99,,,0.00,weatherlink.com 1.10,2013-03-06 06:15:00,
2013-03-05 23:46:00,19.7,5.0,30.34,SW,234,0.0,-999.0,54,-99.99,,,0.00,weatherlink.com 1.10,2013-03-06 06:46:00,